Regional Weather Roundup
Issued by NWS

Home | Current Version | Previous Version | Graphics & Text | Print | Product List | Glossary On
Versions: 1 2 3 4 5 6 7 8 9 10 11 12 13 14 15 16 17 18 19 20 21 22 23 24 25 26 27 28 29 30 31 32 33 34 35 36 37 38 39 40 41 42 43 44 45 46 47 48 49 50
000
ASUS43 KMPX 010410
RWRMN
WEATHER ROUNDUP FOR MINNESOTA
NATIONAL WEATHER SERVICE TWIN CITIES/CHANHASSEN MN
1100 PM CDT TUE SEP 30 2014


NOTE: "FAIR" INDICATES FEW OR NO CLOUDS BELOW 12,000 FEET WITH NO
SIGNIFICANT WEATHER AND/OR OBSTRUCTIONS TO VISIBILITY. N/A MEANS
CURRENT SKY AND/OR WEATHER CONDITIONS ARE NOT AVAILABLE.

MNZ060>063-068>070-010500-
   Twin Cities Metro

CITY           SKY/WX    TMP DP  RH WIND       PRES   REMARKS
TWIN CITIES    CLOUDY    52  45  77 SE16G25   29.86S
ST PAUL        CLOUDY    53  46  77 SE18G25   29.87F
CRYSTAL        CLOUDY    55  45  68 S9        29.88R
BLAINE         CLOUDY    54  46  76 SE8       29.87F
LAKEVILLE      CLOUDY    52  46  82 E9G16     29.84F
EDEN PRAIRIE   CLOUDY    54  47  77 E8        29.83S
SOUTH ST PAUL  CLOUDY    53  45  75 SE9G17    29.86F
LAKE ELMO      FAIR      52  45  76 SE9G16    29.89F
$$
MNZ001>005-007-008-013>017-022>024-027-028-010500-
   Northwest Minnesota

CITY           SKY/WX    TMP DP  RH WIND       PRES   REMARKS
BEMIDJI        CLOUDY    51  44  76 SE17G25   29.77S
HALLOCK        CLOUDY    57  46  67 SE17G23   29.60F
ROSEAU         CLOUDY    55  46  71 SE16      29.70F
WARROAD        CLOUDY    52  46  82 SE15G21   29.72F
THIEF RVR FALL CLOUDY    55  45  67 SE18      29.65F
CROOKSTON      CLOUDY    57  48  72 SE25G31   29.62F
FOSSTON        CLOUDY    54  45  71 SE18G25   29.69F
DETROIT LAKES  CLOUDY    54  46  76 SE17G30   29.71F
PARK RAPIDS    CLOUDY    53  44  71 SE21      29.77F
MAHNOMEN       MOCLDY    55  47  72 SE22G31   29.67F
$$
MNZ006-009>011-018-025>026-010500-
   North Central Minnesota

CITY           SKY/WX    TMP DP  RH WIND       PRES   REMARKS
BAUDETTE       MOCLDY    50  42  74 SE12G20   29.76F
FLAG ISLAND    MOCLDY    55  45  67 SE17      29.74F
INTL FALLS     PTCLDY    46  40  79 SE10      29.86S
WASKISH        CLOUDY    52  43  71 E16G25    29.77F
BIG FORK       MOCLDY    45  41  87 SE7       29.87S
LONGVILLE      CLOUDY    48  45  87 SE10G18   29.83F
GRAND RAPIDS   MOCLDY    45  39  81 SE10G18   29.88R
CRANE LAKE     MOCLDY    41  39  93 CALM      29.92F
ORR            MOCLDY    41  36  81 SE6       29.86F
COOK           MOCLDY    43  39  87 E6        29.89F
WALKER         FAIR      51  45  78 SE6G18    29.80S
$$
MNZ012-019>021-037-010500-
   Northeast Minnesota

CITY           SKY/WX    TMP DP  RH WIND       PRES   REMARKS
DULUTH         CLOUDY    46  43  89 E14       29.93S
ELY            MOCLDY    43  37  81 E5        29.93F
HIBBING        CLOUDY    46  41  82 S9        29.91F
EVELETH        MOCLDY    43  39  87 E6        29.91F
DULUTH HARBOR  CLOUDY    48  46  93 E15       29.96F
TWO HARBORS    CLOUDY    46  41  81 E13       29.94F
SILVER BAY     MOCLDY    43  43 100 NE7       29.96F
GRAND MARAIS     N/A     45  40  82 NE7       30.03S
G MARAIS ARPRT CLEAR     37  34  87 E7        30.01S
$$
MNZ029>031-032-039>041-046>048-054>057-064-010500-
   West Central Minnesota

CITY           SKY/WX    TMP DP  RH WIND       PRES   REMARKS
FERGUS FALLS   CLOUDY    57  48  72 SE21G28   29.69F
WHEATON        MOCLDY    57  54  88 SE20G26   29.68S
MORRIS         PTCLDY    57  54  88 SE18G24   29.71R
ALEXANDRIA     PTCLDY    52  47  83 SE14G22   29.76F
ELBOW LAKE     MOCLDY    56  51  84 SE22G30   29.69F
WADENA         MOCLDY    50  45  81 SE17      29.76F
GLENWOOD       PTCLDY    52  48  87 SE9       29.77S
APPLETON       CLOUDY    61  55  82 S13G24    29.72R
BENSON         PTCLDY    57  54  88 S14G20    29.74S
ORTONVILLE     CLOUDY    61  55  82 S15G23    29.69S
MADISON        CLEAR     63  57  82 S12G18    29.72R
WILLMAR        FAIR      57  52  82 SE13      29.78F
$$
MNZ033>034-036-042>043-049>051-058-059-010500-
   Central Minnesota

CITY           SKY/WX    TMP DP  RH WIND       PRES   REMARKS
ST CLOUD       CLOUDY    55  45  68 SE10      29.84F
SAUK CENTRE    FAIR      52  47  83 SE10      29.79F
PAYNESVILLE    MOCLDY    53  47  82 E12       29.80S
AITKIN         CLOUDY    52  45  76 E7        29.86S
PINE RIVER     CLOUDY    54  46  76 SE17G23   29.85F
BRAINERD       CLOUDY    51  43  74 SE10      29.84S
STAPLES        CLOUDY    52  45  76 SE9G17    29.79F
LONG PRAIRIE   FAIR      50  45  81 E9        29.79F
LITTLE FALLS   CLOUDY    50  43  76 E9        29.82F
LITCHFIELD     CLOUDY    57  52  82 SE10      29.81F
BUFFALO        CLOUDY    54  46  74 E9        29.86R
MAPLE LAKE     CLOUDY    55  49  79 SE9       29.85S
$$
MNZ037-044-045-052-053-010500-
   East Central Minnesota

CITY           SKY/WX    TMP DP  RH WIND       PRES   REMARKS
PRINCETON      CLOUDY    54  46  76 E8        29.86F
MORA           CLOUDY    50  43  76 SE7       29.90F
CAMBRIDGE      CLOUDY    54  43  66 E9        29.85F
RUSH CITY      CLOUDY    51  44  76 SE8       29.90S
MOOSE LAKE     MOCLDY    45  41  87 E5        29.91R
HINCKLEY       CLOUDY    52  45  76 SE5       29.92R
CLOQUET        CLOUDY    45  43  93 E8G22     29.92S
MCGREGOR       CLOUDY    46  43  87 E14G20    29.87F
$$
MNZ071>073-080-081-089-090-097-098-010500-
   Southwest Minnesota

CITY           SKY/WX    TMP DP  RH WIND       PRES   REMARKS
MONTEVIDEO     CLEAR     57  57 100 S9G16     29.75S
GRANITE FALLS  CLEAR     58  56  94 SE13      29.76F
CANBY          PTCLDY    62  58  87 S10G21    29.74R
MARSHALL       CLEAR     61  54  77 S15       29.75R
REDWOOD FALLS  PTCLDY    59  56  89 SE14      29.78S
OLIVIA         MOCLDY    57  54  88 SE9       29.78S
PIPESTONE      CLOUDY    61  57  88 S15G21    29.77S
WINDOM         PTCLDY    59  55  88 SE16G23   29.81S
WORTHINGTON    CLOUDY    59  55  88 S9G20     29.81S
JACKSON        MOCLDY    59  54  82 SE13G20   29.83S
TRACY          CLEAR     60  58  92 S15G22    29.77S
SLAYTON        MOCLDY    58  58  97 SE15G22   29.79S
$$
MNZ065>067-074>077-082>085-091>093-010500-
   South Central Minnesota

CITY           SKY/WX    TMP DP  RH WIND       PRES   REMARKS
MANKATO        CLOUDY    57  48  72 SE13      29.84F
NEW ULM        MOCLDY    57  57 100 SE8       29.82S
ST JAMES       MOCLDY    61  55  82 SE13      29.83S
FAIRMONT       MOCLDY    57  52  82 SE15G21   29.83F
GLENCOE        CLOUDY    57  50  76 E9        29.82F
FARIBAULT      CLOUDY    55  48  76 SE13G23   29.86S
OWATONNA       CLOUDY    54  46  76 SE16G24   29.87R
WASECA         CLOUDY    54  43  66 SE15G24   29.87R
ALBERT LEA     CLOUDY    55  46  71 SE14      29.88S
$$
MNZ078>079-086>088-094>096-010500-
   Southeast Minnesota

CITY           SKY/WX    TMP DP  RH WIND       PRES   REMARKS
ROCHESTER      CLOUDY    50  45  83 SE14      29.92F
RED WING       CLOUDY    52  45  76 SE15      29.91F
STANTON        CLOUDY    55  46  74 SE13G23   29.85F
DODGE CENTER   CLOUDY    52  46  82 SE15      29.90F
WINONA         CLOUDY    48  45  87 SE9       29.96F
AUSTIN         CLOUDY    52  46  82 SE7       29.91R
PRESTON        CLOUDY    48  43  82 SE8       29.96R
$$
ABBREVIATIONS USED IN REMARKS
   TC - TEMPERATURES IN CELSIUS
  WCI - WIND CHILL INDEX
   HX - HEAT INDEX
  VSB - VISIBILITY
$$



USA.gov is the U.S. government's official web portal to all federal, state and local government web resources and services.